GW0772 Weather Reports


time (UTC)temp
C
wind
direction
speed
KPH
gust
KPH
rain 1hr
cm
rain 24hr
cm
rain mn
cm
humidity
%
barometer
mb
20260504160204 23 238 8.0 20.9 0.00 0.00 0.00 49 1008.8
20260504150703 22 195 4.8 19.3 0.00 0.00 0.00 57 1009.1
20260504150204 22 219 4.8 16.1 0.00 0.00 0.00 57 1009.1
20260504141204 20 243 8.0 16.1 0.00 0.00 0.00 64 1009.8
20260504140704 19 237 6.4 20.9 0.00 0.00 0.00 67 1010.0
20260504140204 19 226 3.2 4.8 0.00 0.00 0.00 69 1010.1
20260504130704 16 168 1.6 4.8 0.00 0.00 0.00 78 1010.2
20260504130204 16 323 1.6 4.8 0.00 0.00 0.00 78 1010.1
20260504120203 13 121 0.0 1.6 0.00 0.00 0.00 83 1009.9
20260504110203 13 135 0.0 0.0 0.00 0.00 0.00 82 1009.5
20260504100204 14 135 0.0 1.6 0.00 0.00 0.00 81 1009.7
20260504081705 13 230 0.0 0.0 0.00 0.00 0.00 81 1009.6
20260504081204 13 230 0.0 0.0 0.00 0.00 0.00 80 1009.6
20260504080704 13 230 0.0 0.0 0.00 0.00 0.00 80 1009.6
20260504080204 13 230 0.0 0.0 0.00 0.00 0.00 80 1009.6
20260504070204 15 230 0.0 0.0 0.00 0.00 0.00 73 1010.1
20260504060205 15 132 1.6 4.8 0.00 0.00 0.00 74 1010.5
20260504050204 15 132 0.0 1.6 0.00 0.00 0.00 71 1011.3
20260504045704 15 132 0.0 3.2 0.00 0.00 0.00 71 1011.3
20260504045204 15 117 0.0 0.0 0.00 0.00 0.00 70 1011.3
20260504044704 15 117 0.0 1.6 0.00 0.00 0.00 70 1011.3
20260504043704 15 117 0.0 1.6 0.00 0.00 0.00 69 1011.5
20260504043204 15 117 0.0 1.6 0.00 0.00 0.00 68 1011.5
20260504041205 16 121 0.0 0.0 0.00 0.00 0.00 66 1011.7
20260504040704 16 121 0.0 0.0 0.00 0.00 0.00 65 1011.6
20260504035204 16 92 0.0 3.2 0.00 0.00 0.00 64 1011.7
20260504034705 16 86 0.0 1.6 0.00 0.00 0.00 63 1011.7
20260504034206 16 181 0.0 1.6 0.00 0.00 0.00 62 1011.8
20260504033704 17 204 0.0 8.0 0.00 0.00 0.00 62 1011.8
20260504032704 17 120 1.6 4.8 0.00 0.00 0.00 61 1011.8
20260504032204 17 80 0.0 3.2 0.00 0.00 0.00 60 1011.8
20260504031704 17 134 1.6 4.8 0.00 0.00 0.00 60 1011.9
20260504031204 17 160 0.0 4.8 0.00 0.00 0.00 60 1011.9
20260504030704 17 199 0.0 4.8 0.00 0.00 0.00 59 1011.9
20260504025704 17 99 1.6 4.8 0.00 0.00 0.00 58 1011.8
20260504025204 17 207 1.6 4.8 0.00 0.00 0.00 58 1011.9
20260504024204 17 176 1.6 3.2 0.00 0.00 0.00 57 1011.8
20260504023205 17 251 3.2 11.3 0.00 0.00 0.00 57 1011.8
20260504022704 17 190 3.2 4.8 0.00 0.00 0.00 57 1011.7
20260504021704 17 212 1.6 4.8 0.00 0.00 0.00 56 1011.6
20260504021204 17 227 3.2 8.0 0.00 0.00 0.00 56 1011.5
20260504020704 18 298 1.6 4.8 0.00 0.00 0.00 55 1011.6
20260504020204 18 291 1.6 3.2 0.00 0.00 0.00 55 1011.5
20260504015705 18 224 1.6 4.8 0.00 0.00 0.00 54 1011.6
20260504015204 18 184 3.2 4.8 0.00 0.00 0.00 54 1011.6
20260504014704 18 220 1.6 11.3 0.00 0.00 0.00 53 1011.6
20260504014205 18 33 1.6 4.8 0.00 0.00 0.00 52 1011.5
20260504013204 18 160 1.6 3.2 0.00 0.00 0.00 51 1011.5
20260504012704 18 330 1.6 4.8 0.00 0.00 0.00 51 1011.5
20260504012204 18 96 1.6 4.8 0.00 0.00 0.00 50 1011.5
20260504011204 19 213 1.6 8.0 0.00 0.00 0.00 49 1011.5
20260504010704 19 221 1.6 9.7 0.00 0.00 0.00 48 1011.4
20260504010204 19 241 4.8 12.9 0.00 0.00 0.00 48 1011.4
20260504005204 20 228 3.2 9.7 0.00 0.00 0.00 47 1011.3
20260504004204 20 175 3.2 9.7 0.00 0.00 0.00 47 1011.3
20260504003704 20 234 4.8 9.7 0.00 0.00 0.00 46 1011.3
20260504003204 20 192 4.8 12.9 0.00 0.00 0.00 46 1011.4
20260504002705 20 188 9.7 19.3 0.00 0.00 0.00 45 1011.4
20260504002204 20 190 3.2 11.3 0.00 0.00 0.00 45 1011.4
20260504001204 20 238 3.2 14.5 0.00 0.00 0.00 45 1011.6
20260504000705 20 226 6.4 22.5 0.00 0.00 0.00 44 1011.5
20260503235704 21 235 6.4 16.1 0.00 0.00 0.00 44 1011.5
20260503235204 21 240 6.4 19.3 0.00 0.00 0.00 43 1011.6
20260503234204 21 223 4.8 16.1 0.00 0.00 0.00 43 1011.7
20260503233704 21 225 8.0 20.9 0.00 0.00 0.00 41 1011.7
20260503232704 21 261 3.2 16.1 0.00 0.00 0.00 42 1011.7
20260503231705 21 205 9.7 22.5 0.00 0.00 0.00 41 1011.8
20260503231205 21 229 11.3 20.9 0.00 0.00 0.00 40 1011.8
20260503230704 21 203 8.0 12.9 0.00 0.00 0.00 40 1011.9
20260503230205 21 195 8.0 19.3 0.00 0.00 0.00 39 1012.0
20260503225704 21 199 4.8 19.3 0.00 0.00 0.00 41 1012.0
20260503225204 21 244 6.4 24.1 0.00 0.00 0.00 40 1012.1
20260503224704 21 213 4.8 20.9 0.00 0.00 0.00 40 1012.2
20260503224204 21 228 6.4 25.7 0.00 0.00 0.00 39 1012.2
20260503223704 21 217 8.0 19.3 0.00 0.00 0.00 40 1012.3
20260503222705 21 134 4.8 14.5 0.00 0.00 0.00 40 1012.4
20260503222204 21 223 8.0 14.5 0.00 0.00 0.00 39 1012.4
20260503221704 21 222 8.0 20.9 0.00 0.00 0.00 40 1012.6
20260503221204 21 223 4.8 12.9 0.00 0.00 0.00 41 1012.6
20260503220704 21 213 4.8 24.1 0.00 0.00 0.00 41 1012.8
20260503220204 21 136 6.4 16.1 0.00 0.00 0.00 40 1012.8
20260503215704 21 238 4.8 11.3 0.00 0.00 0.00 40 1012.9
20260503215204 21 332 9.7 19.3 0.00 0.00 0.00 39 1012.9
20260503214704 21 220 9.7 22.5 0.00 0.00 0.00 38 1013.0
20260503214205 21 230 4.8 16.1 0.00 0.00 0.00 40 1013.2
20260503213704 21 268 8.0 19.3 0.00 0.00 0.00 39 1013.4
20260503212704 21 230 4.8 19.3 0.00 0.00 0.00 40 1013.6
20260503212204 21 247 4.8 12.9 0.00 0.00 0.00 41 1013.6
20260503211704 21 214 6.4 19.3 0.00 0.00 0.00 40 1013.6
20260503211204 21 242 8.0 22.5 0.00 0.00 0.00 38 1013.7
20260503210704 21 231 8.0 22.5 0.00 0.00 0.00 39 1013.8
20260503210204 21 228 8.0 19.3 0.00 0.00 0.00 38 1013.8
20260503205704 21 213 9.7 20.9 0.00 0.00 0.00 39 1014.1
20260503205205 21 214 9.7 20.9 0.00 0.00 0.00 38 1014.2
20260503204704 21 215 4.8 19.3 0.00 0.00 0.00 42 1014.4
20260503204204 21 206 9.7 24.1 0.00 0.00 0.00 40 1014.6
20260503203704 21 207 8.0 16.1 0.00 0.00 0.00 40 1014.6
20260503203205 21 215 6.4 16.1 0.00 0.00 0.00 40 1014.6
20260503202704 20 262 8.0 22.5 0.00 0.00 0.00 40 1014.8
20260503201705 20 221 9.7 24.1 0.00 0.00 0.00 40 1015.1
20260503201204 20 191 4.8 19.3 0.00 0.00 0.00 42 1015.3
20260503200704 20 183 4.8 11.3 0.00 0.00 0.00 43 1015.4
20260503200204 20 122 3.2 11.3 0.00 0.00 0.00 43 1015.4
20260503195704 20 217 6.4 24.1 0.00 0.00 0.00 42 1015.6
20260503195204 20 234 8.0 14.5 0.00 0.00 0.00 43 1015.8
20260503194704 20 273 6.4 14.5 0.00 0.00 0.00 43 1015.8
20260503194205 20 217 4.8 14.5 0.00 0.00 0.00 44 1015.9
20260503193705 20 228 6.4 19.3 0.00 0.00 0.00 42 1016.2
20260503193204 20 213 4.8 19.3 0.00 0.00 0.00 44 1016.3
20260503192704 20 231 8.0 22.5 0.00 0.00 0.00 43 1016.3
20260503192204 20 47 3.2 12.9 0.00 0.00 0.00 46 1016.4
20260503191704 20 247 8.0 20.9 0.00 0.00 0.00 44 1016.5
20260503191204 20 243 9.7 27.4 0.00 0.00 0.00 42 1016.4
20260503190704 20 232 8.0 20.9 0.00 0.00 0.00 46 1016.7
20260503190204 19 168 6.4 12.9 0.00 0.00 0.00 44 1016.6
20260503185204 19 169 6.4 14.5 0.00 0.00 0.00 45 1016.9
20260503184705 19 221 6.4 14.5 0.00 0.00 0.00 43 1017.0
20260503184204 19 227 8.0 20.9 0.00 0.00 0.00 44 1017.2
20260503183704 19 179 8.0 19.3 0.00 0.00 0.00 43 1017.3
20260503183204 19 253 8.0 24.1 0.00 0.00 0.00 44 1017.5
20260503182704 18 218 6.4 22.5 0.00 0.00 0.00 46 1017.6
20260503182204 19 270 8.0 27.4 0.00 0.00 0.00 43 1017.8
20260503181705 18 268 4.8 22.5 0.00 0.00 0.00 46 1018.0
20260503181204 18 188 8.0 16.1 0.00 0.00 0.00 45 1018.0
20260503180204 18 251 6.4 14.5 0.00 0.00 0.00 45 1018.3
20260503175704 18 220 8.0 20.9 0.00 0.00 0.00 46 1018.4
20260503175204 18 139 9.7 20.9 0.00 0.00 0.00 45 1018.4
20260503174704 18 174 4.8 16.1 0.00 0.00 0.00 46 1018.6
20260503174204 18 218 8.0 20.9 0.00 0.00 0.00 47 1018.6
20260503173704 18 264 6.4 16.1 0.00 0.00 0.00 47 1018.9
20260503173204 18 211 8.0 19.3 0.00 0.00 0.00 49 1018.9
20260503172704 18 212 4.8 14.5 0.00 0.00 0.00 48 1019.0
20260503172204 17 302 6.4 14.5 0.00 0.00 0.00 49 1019.2
20260503171705 17 238 9.7 22.5 0.00 0.00 0.00 48 1019.3
20260503171204 17 182 4.8 11.3 0.00 0.00 0.00 51 1019.2
20260503170704 17 236 9.7 20.9 0.00 0.00 0.00 48 1019.3
20260503170204 17 230 8.0 20.9 0.00 0.00 0.00 49 1019.4